Regional Weather Roundup
Issued by NWS Kansas City/Pleasant Hill, MO

Home | Current Version | Previous Version | Text Only | Print | Product List | Glossary On
Versions: 1 2 3 4 5 6 7 8 9 10 11 12 13 14 15 16 17 18 19 20 21 22 23 24 25 26 27 28 29 30 31 32 33 34 35 36 37 38 39 40 41 42 43 44 45 46 47 48 49 50
624
ASUS43 KEAX 240310
RWREAX

WEATHER ROUNDUP FOR EASTERN KANSAS AND NORTHWEST MISSOURI
NATIONAL WEATHER SERVICE KANSAS CITY/PLEASANT HILL MO
900 PM CST MON JAN 23 2017

KSZ040-057-103>105-MOZ028-029-037-043-240400-
...KANSAS CITY METROPOLITAN AREA...

CITY           SKY/WX    TMP DP  RH WIND       PRES   REMARKS
K.C. INTL      CLEAR     34  29  82 E7        29.83S WCI  28
K.C. DOWNTOWN  CLEAR     37  32  82 E5        29.84S WCI  33
LEES SUMMIT    CLEAR     35  32  88 SE6       29.84S FOG     WCI  30
OLATHE - IXD   CLEAR     33  31  92 E6        29.83S FOG     WCI  28
OLATHE - OJC   CLEAR     33  32  96 SE5       29.83S WCI  29
LAWRENCE       CLEAR     32  30  92 E7        29.83S FOG     WCI  26

$$

MOZ001>008-011>017-020>025-030>033-038>040-044>046-053-054-240400-
...NORTHERN AND CENTRAL MISSOURI...

CITY           SKY/WX    TMP DP  RH WIND       PRES   REMARKS
ST. JOSEPH     CLEAR     32  30  92 E7        29.85S WCI  26
MOSBY          CLEAR     32  32 100 CALM      29.85S
WARRENSBURG    CLEAR     34  32  93 CALM      29.85F
WHITEMAN AFB   CLEAR     32  32 100 CALM      29.84F
CLINTON        CLEAR     32  32 100 E5        29.86S WCI  27
SEDALIA        CLEAR     33  30  88 CALM      29.87S
WARSAW         NOT AVBL
CHILLICOTHE      N/A     32  28  85 CALM      29.88S
KIRKSVILLE     CLOUDY    33  30  88 CALM      29.88R

$$

MOZ041-047>049-056>058-063>065-088>090-097-240400-
...EASTERN AND SOUTHERN MISSOURI...

CITY           SKY/WX    TMP DP  RH WIND       PRES   REMARKS
ST. LOUIS INTL CLOUDY    41  32  70 NW7       29.86S
SPIRIT OF STL  CLOUDY    42  34  73 N5        29.86R
COLUMBIA       CLOUDY    35  31  85 NW5       29.87R WCI  31
JEFFERSON CITY CLEAR     35  30  82 N3        29.88S
ROLLA          CLEAR     30  29  96 CALM      29.84R
OSAGE BEACH    CLEAR     29  26  89 CALM      29.87S
SPRINGFIELD    CLEAR     35  29  78 SE3       29.83R
BRANSON        CLEAR     39  32  75 CALM      29.84S
JOPLIN         CLEAR     36  32  85 E5        29.82S WCI  32
WEST PLAINS    CLEAR     33  30  88 CALM      29.85S

$$

IAZ060-094-KSZ022-034>040-054-083-096-NEZ052-066-093-240400-
...KANSAS...SOUTHEAST NEBRASKA AND IOWA...

CITY           SKY/WX    TMP DP  RH WIND       PRES   REMARKS
TOPEKA         CLEAR     34  30  85 E7        29.81F WCI  28
MANHATTAN      CLEAR     35  33  92 NE3       29.76F
EMPORIA        CLEAR     40  33  76 SE9       29.77S WCI  34
CHANUTE        CLEAR     41  34  76 SE9       29.79F
WICHITA        CLEAR     45  32  60 SE13      29.69S
OMAHA          CLOUDY    33  27  78 SE9       29.84S WCI  25
LINCOLN        CLOUDY    33  30  88 E9        29.82R WCI  25
FALLS CITY     CLEAR     29  27  92 E7        29.82S WCI  22
LAMONI         CLOUDY    32  28  85 CALM      29.86R
DES MOINES     CLOUDY    34  28  79 SE3       29.86R

$$





USA.gov is the U.S. government's official web portal to all federal, state and local government web resources and services.